MANDRAKE 2 ABLE (48907 NORAD) Tracking and Keplerian Element Data

This shows tracking and keplerian element data for the satellite.

Feedback or suggestion? Click here.




ElementValue
Catalog48907
NameMANDRAKE 2 ABLE
Epoch Orbit1680
Epoch Day287.971487
Epoch Year2021
RAAN55.1489
Inclination97.5247
Eccentricity0.001001
Argument of Perigee221.187
Mean Anonmoly138.8606
Mean Motion15.12716461
Decay Rate1.311E-05
L11 48907U 21059AE 21287.97148700 .00001311 00000-0 78537-4 0 9991
L22 48907 97.5247 55.1489 0010010 221.1870 138.8606 15.12716461 16800

Live tracking and technical data element details for MANDRAKE 2 ABLE (NORAD 48907). MANDRAKE 2 ABLE can be tracked NOW for your location showing map with azimuth and elevation plus other details from your city location.

Track the satellite on the map from your city or location and see movement details for azimuth, elevation, latitude, longitude, range, height, and movement on the map or in text.







IsCatalogInMostPopularTable: catalog: 48907, numindb: 18
Update: records affected: 1



GetName: 48907 MANDRAKE 2 ABLE

Hit Count: updated at: Tue, 19 Oct 2021 09:45:59 GMT